Year,Month,Day,Hour,Minute,Value (Times are PST for temperature in C)
2010,07,14,00,00,11.60
2010,07,14,00,01,11.60
2010,07,14,00,02,11.60
2010,07,14,00,03,11.60
2010,07,14,00,04,11.50
2010,07,14,00,05,11.50
2010,07,14,00,06,11.40
2010,07,14,00,07,11.40
2010,07,14,00,08,11.40
2010,07,14,00,09,11.30
2010,07,14,00,10,11.30
2010,07,14,00,11,11.30
2010,07,14,00,12,11.30
2010,07,14,00,13,11.20
2010,07,14,00,14,11.20
2010,07,14,00,15,11.20
2010,07,14,00,16,11.20
2010,07,14,00,17,11.10
2010,07,14,00,18,11.10
2010,07,14,00,19,11.10
2010,07,14,00,20,11.00
2010,07,14,00,21,11.00
2010,07,14,00,22,11.00
2010,07,14,00,23,10.90
2010,07,14,00,24,10.90
2010,07,14,00,25,10.90
2010,07,14,00,26,10.90
2010,07,14,00,27,10.80
2010,07,14,00,28,10.80
2010,07,14,00,29,10.80
2010,07,14,00,30,10.80
2010,07,14,00,31,10.80
2010,07,14,00,32,10.70
2010,07,14,00,33,10.70
2010,07,14,00,34,10.70
2010,07,14,00,35,10.70
2010,07,14,00,36,10.70
2010,07,14,00,37,10.60
2010,07,14,00,38,10.60
2010,07,14,00,39,10.60
2010,07,14,00,40,10.60
2010,07,14,00,41,10.60
2010,07,14,00,42,10.50
2010,07,14,00,43,10.50
2010,07,14,00,44,10.50
2010,07,14,00,45,10.40
2010,07,14,00,46,10.40
2010,07,14,00,47,10.40
2010,07,14,00,48,10.40
2010,07,14,00,49,10.40
2010,07,14,00,50,10.30
2010,07,14,00,51,10.30
2010,07,14,00,52,10.30
2010,07,14,00,53,10.30
2010,07,14,00,54,10.30
2010,07,14,00,55,10.30
2010,07,14,00,56,10.30
2010,07,14,00,57,10.20
2010,07,14,00,58,10.20
2010,07,14,00,59,10.20
2010,07,14,01,00,10.20
2010,07,14,01,01,10.20
2010,07,14,01,02,10.20
2010,07,14,01,03,10.10
2010,07,14,01,04,10.10
2010,07,14,01,05,10.10
2010,07,14,01,06,10.10
2010,07,14,01,07,10.10
2010,07,14,01,08,10.10
2010,07,14,01,09,10.00
2010,07,14,01,10,10.00
2010,07,14,01,11,10.00
2010,07,14,01,12,10.00
2010,07,14,01,13,9.90
2010,07,14,01,14,9.90
2010,07,14,01,15,9.90
2010,07,14,01,16,9.90
2010,07,14,01,17,9.90
2010,07,14,01,18,9.80
2010,07,14,01,19,9.80
2010,07,14,01,20,9.80
2010,07,14,01,21,9.80
2010,07,14,01,22,9.80
2010,07,14,01,23,9.80
2010,07,14,01,24,9.80
2010,07,14,01,25,9.80
2010,07,14,01,26,9.70
2010,07,14,01,27,9.70
2010,07,14,01,28,9.70
2010,07,14,01,29,9.70
2010,07,14,01,30,9.70
2010,07,14,01,31,9.70
2010,07,14,01,32,9.60
2010,07,14,01,33,9.60
2010,07,14,01,34,9.60
2010,07,14,01,35,9.60
2010,07,14,01,36,9.60
2010,07,14,01,37,9.60
2010,07,14,01,38,9.60
2010,07,14,01,39,9.60
2010,07,14,01,40,9.60
2010,07,14,01,41,9.60
2010,07,14,01,42,9.60
2010,07,14,01,43,9.50
2010,07,14,01,44,9.50
2010,07,14,01,45,9.50
2010,07,14,01,46,9.50
2010,07,14,01,47,9.40
2010,07,14,01,48,9.40
2010,07,14,01,49,9.40
2010,07,14,01,50,9.40
2010,07,14,01,51,9.40
2010,07,14,01,52,9.40
2010,07,14,01,53,9.30
2010,07,14,01,54,9.30
2010,07,14,01,55,9.30
2010,07,14,01,56,9.30
2010,07,14,01,57,9.30
2010,07,14,01,58,9.30
2010,07,14,01,59,9.30
2010,07,14,02,00,9.30
2010,07,14,02,01,9.30
2010,07,14,02,02,9.20
2010,07,14,02,03,9.20
2010,07,14,02,04,9.20
2010,07,14,02,05,9.20
2010,07,14,02,06,9.20
2010,07,14,02,07,9.20
2010,07,14,02,08,9.20
2010,07,14,02,09,9.20
2010,07,14,02,10,9.10
2010,07,14,02,11,9.10
2010,07,14,02,12,9.10
2010,07,14,02,13,9.10
2010,07,14,02,14,9.10
2010,07,14,02,15,9.10
2010,07,14,02,16,9.10
2010,07,14,02,17,9.10
2010,07,14,02,18,9.10
2010,07,14,02,19,9.10
2010,07,14,02,20,9.10
2010,07,14,02,21,9.00
2010,07,14,02,22,9.00
2010,07,14,02,23,9.00
2010,07,14,02,24,9.00
2010,07,14,02,25,9.00
2010,07,14,02,26,9.00
2010,07,14,02,27,8.90
2010,07,14,02,28,8.90
2010,07,14,02,29,8.90
2010,07,14,02,30,8.90
2010,07,14,02,31,8.90
2010,07,14,02,32,8.90
2010,07,14,02,33,8.90
2010,07,14,02,34,8.90
2010,07,14,02,35,8.80
2010,07,14,02,36,8.80
2010,07,14,02,37,8.80
2010,07,14,02,38,8.80
2010,07,14,02,39,8.80
2010,07,14,02,40,8.80
2010,07,14,02,41,8.80
2010,07,14,02,42,8.80
2010,07,14,02,43,8.80
2010,07,14,02,44,8.80
2010,07,14,02,45,8.70
2010,07,14,02,46,8.70
2010,07,14,02,47,8.70
2010,07,14,02,48,8.70
2010,07,14,02,49,8.70
2010,07,14,02,50,8.70
2010,07,14,02,51,8.70
2010,07,14,02,52,8.70
2010,07,14,02,53,8.70
2010,07,14,02,54,8.70
2010,07,14,02,55,8.70
2010,07,14,02,56,8.70
2010,07,14,02,57,8.60
2010,07,14,02,58,8.60
2010,07,14,02,59,8.60
2010,07,14,03,00,8.60
2010,07,14,03,01,8.60
2010,07,14,03,02,8.60
2010,07,14,03,03,8.60
2010,07,14,03,04,8.60
2010,07,14,03,05,8.60
2010,07,14,03,06,8.60
2010,07,14,03,07,8.60
2010,07,14,03,08,8.60
2010,07,14,03,09,8.50
2010,07,14,03,10,8.50
2010,07,14,03,11,8.50
2010,07,14,03,12,8.50
2010,07,14,03,13,8.50
2010,07,14,03,14,8.50
2010,07,14,03,15,8.40
2010,07,14,03,16,8.40
2010,07,14,03,17,8.40
2010,07,14,03,18,8.40
2010,07,14,03,19,8.40
2010,07,14,03,20,8.40
2010,07,14,03,21,8.40
2010,07,14,03,22,8.40
2010,07,14,03,23,8.40
2010,07,14,03,24,8.30
2010,07,14,03,25,8.30
2010,07,14,03,26,8.30
2010,07,14,03,27,8.30
2010,07,14,03,28,8.30
2010,07,14,03,29,8.30
2010,07,14,03,30,8.30
2010,07,14,03,31,8.30
2010,07,14,03,32,8.30
2010,07,14,03,33,8.30
2010,07,14,03,34,8.30
2010,07,14,03,35,8.30
2010,07,14,03,36,8.30
2010,07,14,03,37,8.20
2010,07,14,03,38,8.20
2010,07,14,03,39,8.20
2010,07,14,03,40,8.20
2010,07,14,03,41,8.20
2010,07,14,03,42,8.20
2010,07,14,03,43,8.20
2010,07,14,03,44,8.20
2010,07,14,03,45,8.20
2010,07,14,03,46,8.20
2010,07,14,03,47,8.20
2010,07,14,03,48,8.20
2010,07,14,03,49,8.20
2010,07,14,03,50,8.20
2010,07,14,03,51,8.20
2010,07,14,03,52,8.20
2010,07,14,03,53,8.20
2010,07,14,03,54,8.20
2010,07,14,03,55,8.10
2010,07,14,03,56,8.10
2010,07,14,03,57,8.10
2010,07,14,03,58,8.10
2010,07,14,03,59,8.10
2010,07,14,04,00,8.10
2010,07,14,04,01,8.10
2010,07,14,04,02,8.10
2010,07,14,04,03,8.10
2010,07,14,04,04,8.10
2010,07,14,04,05,8.10
2010,07,14,04,06,8.10
2010,07,14,04,07,8.10
2010,07,14,04,08,8.10
2010,07,14,04,09,8.10
2010,07,14,04,10,8.10
2010,07,14,04,11,8.10
2010,07,14,04,12,8.00
2010,07,14,04,13,8.10
2010,07,14,04,14,8.00
2010,07,14,04,15,8.00
2010,07,14,04,16,8.00
2010,07,14,04,17,8.00
2010,07,14,04,18,8.00
2010,07,14,04,19,8.00
2010,07,14,04,20,8.00
2010,07,14,04,21,8.00
2010,07,14,04,22,8.00
2010,07,14,04,23,8.00
2010,07,14,04,24,7.90
2010,07,14,04,25,7.90
2010,07,14,04,26,7.90
2010,07,14,04,27,7.90
2010,07,14,04,28,7.90
2010,07,14,04,29,7.90
2010,07,14,04,30,7.90
2010,07,14,04,31,7.90
2010,07,14,04,32,7.90
2010,07,14,04,33,7.90
2010,07,14,04,34,7.90
2010,07,14,04,35,7.80
2010,07,14,04,36,7.80
2010,07,14,04,37,7.80
2010,07,14,04,38,7.80
2010,07,14,04,39,7.80
2010,07,14,04,40,7.80
2010,07,14,04,41,7.80
2010,07,14,04,42,7.80
2010,07,14,04,43,7.80
2010,07,14,04,44,7.80
2010,07,14,04,45,7.70
2010,07,14,04,46,7.70
2010,07,14,04,47,7.70
2010,07,14,04,48,7.70
2010,07,14,04,49,7.70
2010,07,14,04,50,7.70
2010,07,14,04,51,7.70
2010,07,14,04,52,7.70
2010,07,14,04,53,7.60
2010,07,14,04,54,7.60
2010,07,14,04,55,7.60
2010,07,14,04,56,7.60
2010,07,14,04,57,7.60
2010,07,14,04,58,7.60
2010,07,14,04,59,7.60
2010,07,14,05,00,7.60
2010,07,14,05,01,7.60
2010,07,14,05,02,7.60
2010,07,14,05,03,7.60
2010,07,14,05,04,7.60
2010,07,14,05,05,7.60
2010,07,14,05,06,7.60
2010,07,14,05,07,7.60
2010,07,14,05,08,7.50
2010,07,14,05,09,7.50
2010,07,14,05,10,7.50
2010,07,14,05,11,7.50
2010,07,14,05,12,7.50
2010,07,14,05,13,7.50
2010,07,14,05,14,7.50
2010,07,14,05,15,7.50
2010,07,14,05,16,7.50
2010,07,14,05,17,7.40
2010,07,14,05,18,7.40
2010,07,14,05,19,7.40
2010,07,14,05,20,7.40
2010,07,14,05,21,7.40
2010,07,14,05,22,7.40
2010,07,14,05,23,7.40
2010,07,14,05,24,7.40
2010,07,14,05,25,7.40
2010,07,14,05,26,7.40
2010,07,14,05,27,7.40
2010,07,14,05,28,7.40
2010,07,14,05,29,7.40
2010,07,14,05,30,7.40
2010,07,14,05,31,7.40
2010,07,14,05,32,7.30
2010,07,14,05,33,7.30
2010,07,14,05,34,7.30
2010,07,14,05,35,7.30
2010,07,14,05,36,7.30
2010,07,14,05,37,7.30
2010,07,14,05,38,7.30
2010,07,14,05,39,7.30
2010,07,14,05,40,7.30
2010,07,14,05,41,7.30
2010,07,14,05,42,7.30
2010,07,14,05,43,7.30
2010,07,14,05,44,7.30
2010,07,14,05,45,7.30
2010,07,14,05,46,7.30
2010,07,14,05,47,7.30
2010,07,14,05,48,7.30
2010,07,14,05,49,7.30
2010,07,14,05,50,7.30
2010,07,14,05,51,7.30
2010,07,14,05,52,7.30
2010,07,14,05,53,7.30
2010,07,14,05,54,7.40
2010,07,14,05,55,7.40
2010,07,14,05,56,7.40
2010,07,14,05,57,7.40
2010,07,14,05,58,7.40
2010,07,14,05,59,7.40
2010,07,14,06,00,7.40
2010,07,14,06,01,7.40
2010,07,14,06,02,7.40
2010,07,14,06,03,7.50
2010,07,14,06,04,7.50
2010,07,14,06,05,7.50
2010,07,14,06,06,7.50
2010,07,14,06,07,7.60
2010,07,14,06,08,7.60
2010,07,14,06,09,7.60
2010,07,14,06,10,7.60
2010,07,14,06,11,7.60
2010,07,14,06,12,7.60
2010,07,14,06,13,7.60
2010,07,14,06,14,7.60
2010,07,14,06,15,7.60
2010,07,14,06,16,7.60
2010,07,14,06,17,7.60
2010,07,14,06,18,7.60
2010,07,14,06,19,7.60
2010,07,14,06,20,7.60
2010,07,14,06,21,7.70
2010,07,14,06,22,7.70
2010,07,14,06,23,7.70
2010,07,14,06,24,7.70
2010,07,14,06,25,7.70
2010,07,14,06,26,7.70
2010,07,14,06,27,7.70
2010,07,14,06,28,7.70
2010,07,14,06,29,7.70
2010,07,14,06,30,7.70
2010,07,14,06,31,7.80
2010,07,14,06,32,7.80
2010,07,14,06,33,7.80
2010,07,14,06,34,7.80
2010,07,14,06,35,7.80
2010,07,14,06,36,7.80
2010,07,14,06,37,7.80
2010,07,14,06,38,7.80
2010,07,14,06,39,7.80
2010,07,14,06,40,7.80
2010,07,14,06,41,7.80
2010,07,14,06,42,7.90
2010,07,14,06,43,7.90
2010,07,14,06,44,7.90
2010,07,14,06,45,7.90
2010,07,14,06,46,7.90
2010,07,14,06,47,7.90
2010,07,14,06,48,8.00
2010,07,14,06,49,8.00
2010,07,14,06,50,8.00
2010,07,14,06,51,8.00
2010,07,14,06,52,8.10
2010,07,14,06,53,8.10
2010,07,14,06,54,8.10
2010,07,14,06,55,8.10
2010,07,14,06,56,8.10
2010,07,14,06,57,8.20
2010,07,14,06,58,8.20
2010,07,14,06,59,8.20
2010,07,14,07,00,8.20
2010,07,14,07,01,8.20
2010,07,14,07,02,8.30
2010,07,14,07,03,8.30
2010,07,14,07,04,8.30
2010,07,14,07,05,8.40
2010,07,14,07,06,8.40
2010,07,14,07,07,8.50
2010,07,14,07,08,8.60
2010,07,14,07,09,8.70
2010,07,14,07,10,8.70
2010,07,14,07,11,8.80
2010,07,14,07,12,8.90
2010,07,14,07,13,9.00
2010,07,14,07,14,9.10
2010,07,14,07,15,9.20
2010,07,14,07,16,9.20
2010,07,14,07,17,9.30
2010,07,14,07,18,9.40
2010,07,14,07,19,9.50
2010,07,14,07,20,9.60
2010,07,14,07,21,9.70
2010,07,14,07,22,9.80
2010,07,14,07,23,9.90
2010,07,14,07,24,10.00
2010,07,14,07,25,10.10
2010,07,14,07,26,10.20
2010,07,14,07,27,10.30
2010,07,14,07,28,10.40
2010,07,14,07,29,10.50
2010,07,14,07,30,10.60
2010,07,14,07,31,10.80
2010,07,14,07,32,10.90
2010,07,14,07,33,11.10
2010,07,14,07,34,11.20
2010,07,14,07,35,11.30
2010,07,14,07,36,11.50
2010,07,14,07,37,11.70
2010,07,14,07,38,11.80
2010,07,14,07,39,12.00
2010,07,14,07,40,12.20
2010,07,14,07,41,12.40
2010,07,14,07,42,12.60
2010,07,14,07,43,12.80
2010,07,14,07,44,12.90
2010,07,14,07,45,13.10
2010,07,14,07,46,13.30
2010,07,14,07,47,13.40
2010,07,14,07,48,13.60
2010,07,14,07,49,13.70
2010,07,14,07,50,13.90
2010,07,14,07,51,14.00
2010,07,14,07,52,14.20
2010,07,14,07,53,14.30
2010,07,14,07,54,14.40
2010,07,14,07,55,14.60
2010,07,14,07,56,14.70
2010,07,14,07,57,14.80
2010,07,14,07,58,15.00
2010,07,14,07,59,15.00
2010,07,14,08,00,15.00
2010,07,14,08,01,15.10
2010,07,14,08,02,15.30
2010,07,14,08,03,15.30
2010,07,14,08,04,15.50
2010,07,14,08,05,15.60
2010,07,14,08,06,15.70
2010,07,14,08,07,15.80
2010,07,14,08,08,15.90
2010,07,14,08,09,16.00
2010,07,14,08,10,16.10
2010,07,14,08,11,16.20
2010,07,14,08,12,16.20
2010,07,14,08,13,16.30
2010,07,14,08,14,16.30
2010,07,14,08,15,16.30
2010,07,14,08,16,16.30
2010,07,14,08,17,16.30
2010,07,14,08,18,16.40
2010,07,14,08,19,16.40
2010,07,14,08,20,16.40
2010,07,14,08,21,16.30
2010,07,14,08,22,16.30
2010,07,14,08,23,16.30
2010,07,14,08,24,16.30
2010,07,14,08,25,16.30
2010,07,14,08,26,16.30
2010,07,14,08,27,16.20
2010,07,14,08,28,16.20
2010,07,14,08,29,16.20
2010,07,14,08,30,16.20
2010,07,14,08,31,16.20
2010,07,14,08,32,16.20
2010,07,14,08,33,16.20
2010,07,14,08,34,16.20
2010,07,14,08,35,16.20
2010,07,14,08,36,16.20
2010,07,14,08,37,16.30
2010,07,14,08,38,16.30
2010,07,14,08,39,16.30
2010,07,14,08,40,16.40
2010,07,14,08,41,16.40
2010,07,14,08,42,16.50
2010,07,14,08,43,16.60
2010,07,14,08,44,16.70
2010,07,14,08,45,16.70
2010,07,14,08,46,16.80
2010,07,14,08,47,16.80
2010,07,14,08,48,16.90
2010,07,14,08,49,16.90
2010,07,14,08,50,16.90
2010,07,14,08,51,16.90
2010,07,14,08,52,16.90
2010,07,14,08,53,16.90
2010,07,14,08,54,16.90
2010,07,14,08,55,16.90
2010,07,14,08,56,16.90
2010,07,14,08,57,17.00
2010,07,14,08,58,17.00
2010,07,14,08,59,17.00
2010,07,14,09,00,17.00
2010,07,14,09,01,17.10
2010,07,14,09,02,17.20
2010,07,14,09,03,17.20
2010,07,14,09,04,17.30
2010,07,14,09,05,17.40
2010,07,14,09,06,17.50
2010,07,14,09,07,17.50
2010,07,14,09,08,17.50
2010,07,14,09,09,17.50
2010,07,14,09,10,17.40
2010,07,14,09,11,17.50
2010,07,14,09,12,17.60
2010,07,14,09,13,17.60
2010,07,14,09,14,17.60
2010,07,14,09,15,17.70
2010,07,14,09,16,17.80
2010,07,14,09,17,17.80
2010,07,14,09,18,17.80
2010,07,14,09,19,17.80
2010,07,14,09,20,17.90
2010,07,14,09,21,17.90
2010,07,14,09,22,17.90
2010,07,14,09,23,17.80
2010,07,14,09,24,17.80
2010,07,14,09,25,17.80
2010,07,14,09,26,17.80
2010,07,14,09,27,17.80
2010,07,14,09,28,17.90
2010,07,14,09,29,17.90
2010,07,14,09,30,18.00
2010,07,14,09,31,18.10
2010,07,14,09,32,18.10
2010,07,14,09,33,18.10
2010,07,14,09,34,18.10
2010,07,14,09,35,18.10
2010,07,14,09,36,18.10
2010,07,14,09,37,18.10
2010,07,14,09,38,18.10
2010,07,14,09,39,18.10
2010,07,14,09,40,18.10
2010,07,14,09,41,18.10
2010,07,14,09,42,18.20
2010,07,14,09,43,18.20
2010,07,14,09,44,18.30
2010,07,14,09,45,18.40
2010,07,14,09,46,18.40
2010,07,14,09,47,18.30
2010,07,14,09,48,18.20
2010,07,14,09,49,18.20
2010,07,14,09,50,18.10
2010,07,14,09,51,18.10
2010,07,14,09,52,18.10
2010,07,14,09,53,18.10
2010,07,14,09,54,18.10
2010,07,14,09,55,18.20
2010,07,14,09,56,18.30
2010,07,14,09,57,18.30
2010,07,14,09,58,18.40
2010,07,14,09,59,18.50
2010,07,14,10,00,18.50
2010,07,14,10,01,18.60
2010,07,14,10,02,18.70
2010,07,14,10,03,18.80
2010,07,14,10,04,18.80
2010,07,14,10,05,18.90
2010,07,14,10,06,18.90
2010,07,14,10,07,19.00
2010,07,14,10,08,19.00
2010,07,14,10,09,19.00
2010,07,14,10,10,19.10
2010,07,14,10,11,19.10
2010,07,14,10,12,19.10
2010,07,14,10,13,19.00
2010,07,14,10,14,19.00
2010,07,14,10,15,19.00
2010,07,14,10,16,18.90
2010,07,14,10,17,18.90
2010,07,14,10,18,18.90
2010,07,14,10,19,18.90
2010,07,14,10,20,18.90
2010,07,14,10,21,19.00
2010,07,14,10,22,19.10
2010,07,14,10,23,19.10
2010,07,14,10,24,19.10
2010,07,14,10,25,19.10
2010,07,14,10,26,19.10
2010,07,14,10,27,19.10
2010,07,14,10,28,19.10
2010,07,14,10,29,19.10
2010,07,14,10,30,19.10
2010,07,14,10,31,19.10
2010,07,14,10,32,19.10
2010,07,14,10,33,19.10
2010,07,14,10,34,19.10
2010,07,14,10,35,19.20
2010,07,14,10,36,19.20
2010,07,14,10,37,19.30
2010,07,14,10,38,19.30
2010,07,14,10,39,19.40
2010,07,14,10,40,19.50
2010,07,14,10,41,19.60
2010,07,14,10,42,19.60
2010,07,14,10,43,19.70
2010,07,14,10,44,19.70
2010,07,14,10,45,19.80
2010,07,14,10,46,19.90
2010,07,14,10,47,19.90
2010,07,14,10,48,19.90
2010,07,14,10,49,20.00
2010,07,14,10,50,20.00
2010,07,14,10,51,20.10
2010,07,14,10,52,20.10
2010,07,14,10,53,20.20
2010,07,14,10,54,20.20
2010,07,14,10,55,20.20
2010,07,14,10,56,20.20
2010,07,14,10,57,20.20
2010,07,14,10,58,20.20
2010,07,14,10,59,20.30
2010,07,14,11,00,20.40
2010,07,14,11,01,20.40
2010,07,14,11,02,20.50
2010,07,14,11,03,20.60
2010,07,14,11,04,20.60
2010,07,14,11,05,20.60
2010,07,14,11,06,20.60
2010,07,14,11,07,20.70
2010,07,14,11,08,20.80
2010,07,14,11,09,20.90
2010,07,14,11,10,20.90
2010,07,14,11,11,21.00
2010,07,14,11,12,21.00
2010,07,14,11,13,20.90
2010,07,14,11,14,20.80
2010,07,14,11,15,20.80
2010,07,14,11,16,20.90
2010,07,14,11,17,21.00
2010,07,14,11,18,21.10
2010,07,14,11,19,21.20
2010,07,14,11,20,21.20
2010,07,14,11,21,21.30
2010,07,14,11,22,21.20
2010,07,14,11,23,21.10
2010,07,14,11,24,20.90
2010,07,14,11,25,20.90
2010,07,14,11,26,20.90
2010,07,14,11,27,21.00
2010,07,14,11,28,21.00
2010,07,14,11,29,21.10
2010,07,14,11,30,21.20
2010,07,14,11,31,21.30
2010,07,14,11,32,21.40
2010,07,14,11,33,21.40
2010,07,14,11,34,21.50
2010,07,14,11,35,21.50
2010,07,14,11,36,21.50
2010,07,14,11,37,21.50
2010,07,14,11,38,21.40
2010,07,14,11,39,21.30
2010,07,14,11,40,21.10
2010,07,14,11,41,21.00
2010,07,14,11,42,20.90
2010,07,14,11,43,20.90
2010,07,14,11,44,21.00
2010,07,14,11,45,21.00
2010,07,14,11,46,21.00
2010,07,14,11,47,21.10
2010,07,14,11,48,21.10
2010,07,14,11,49,21.10
2010,07,14,11,50,21.00
2010,07,14,11,51,21.00
2010,07,14,11,52,21.10
2010,07,14,11,53,21.10
2010,07,14,11,54,21.20
2010,07,14,11,55,21.30
2010,07,14,11,56,21.40
2010,07,14,11,57,21.40
2010,07,14,11,58,21.40
2010,07,14,11,59,21.40
2010,07,14,12,00,21.50
2010,07,14,12,01,21.40
2010,07,14,12,02,21.40
2010,07,14,12,03,21.30
2010,07,14,12,04,21.30
2010,07,14,12,05,21.30
2010,07,14,12,13,21.30
2010,07,14,12,14,21.20
2010,07,14,12,15,21.20
2010,07,14,12,16,21.20
2010,07,14,12,17,21.20
2010,07,14,12,18,21.20
2010,07,14,12,19,21.10
2010,07,14,12,20,21.10
2010,07,14,12,21,21.00
2010,07,14,12,22,20.90
2010,07,14,12,23,20.80
2010,07,14,12,24,20.80
2010,07,14,12,25,20.80
2010,07,14,12,26,20.80
2010,07,14,12,27,20.80
2010,07,14,12,28,20.80
2010,07,14,12,29,20.70
2010,07,14,12,30,20.80
2010,07,14,12,31,20.80
2010,07,14,12,32,20.80
2010,07,14,12,33,20.80
2010,07,14,12,34,20.80
2010,07,14,12,35,20.80
2010,07,14,12,36,20.80
2010,07,14,12,37,20.90
2010,07,14,12,38,21.00
2010,07,14,12,39,21.10
2010,07,14,12,40,21.10
2010,07,14,12,41,21.10
2010,07,14,12,42,21.10
2010,07,14,12,43,21.10
2010,07,14,12,44,21.10
2010,07,14,12,45,21.10
2010,07,14,12,46,21.20
2010,07,14,12,47,21.10
2010,07,14,12,48,21.10
2010,07,14,12,49,21.10
2010,07,14,12,50,21.10
2010,07,14,12,51,21.10
2010,07,14,12,52,21.20
2010,07,14,12,53,21.10
2010,07,14,12,54,21.10
2010,07,14,12,55,21.00
2010,07,14,12,56,21.00
2010,07,14,12,57,21.00
2010,07,14,12,58,20.90
2010,07,14,12,59,20.80
2010,07,14,13,00,20.80
2010,07,14,13,01,20.90
2010,07,14,13,02,21.10
2010,07,14,13,03,21.10
2010,07,14,13,04,21.20
2010,07,14,13,05,21.30
2010,07,14,13,06,21.40
2010,07,14,13,07,21.40
2010,07,14,13,08,21.30
2010,07,14,13,09,21.30
2010,07,14,13,10,21.30
2010,07,14,13,11,21.30
2010,07,14,13,12,21.30
2010,07,14,13,13,21.40
2010,07,14,13,14,21.30
2010,07,14,13,15,21.40
2010,07,14,13,16,21.50
2010,07,14,13,17,21.60
2010,07,14,13,18,21.60
2010,07,14,13,19,21.70
2010,07,14,13,20,21.70
2010,07,14,13,21,21.80
2010,07,14,13,22,21.70
2010,07,14,13,23,21.70
2010,07,14,13,24,21.60
2010,07,14,13,25,21.60
2010,07,14,13,26,21.60
2010,07,14,13,27,21.60
2010,07,14,13,28,21.50
2010,07,14,13,29,21.60
2010,07,14,13,30,21.60
2010,07,14,13,31,21.60
2010,07,14,13,32,21.60
2010,07,14,13,33,21.60
2010,07,14,13,34,21.60
2010,07,14,13,35,21.60
2010,07,14,13,36,21.60
2010,07,14,13,37,21.50
2010,07,14,13,38,21.30
2010,07,14,13,39,21.20
2010,07,14,13,40,21.10
2010,07,14,13,41,21.00
2010,07,14,13,42,20.90
2010,07,14,13,43,20.90
2010,07,14,13,44,20.90
2010,07,14,13,45,20.90
2010,07,14,13,46,21.00
2010,07,14,13,47,21.00
2010,07,14,13,48,21.10
2010,07,14,13,49,21.10
2010,07,14,13,50,21.20
2010,07,14,13,51,21.30
2010,07,14,13,52,21.40
2010,07,14,13,53,21.60
2010,07,14,13,54,21.60
2010,07,14,13,55,21.50
2010,07,14,13,56,21.50
2010,07,14,13,57,21.60
2010,07,14,13,58,21.60
2010,07,14,13,59,21.50
2010,07,14,14,00,21.30
2010,07,14,14,01,21.20
2010,07,14,14,02,21.10
2010,07,14,14,03,21.10
2010,07,14,14,04,21.10
2010,07,14,14,05,21.00
2010,07,14,14,06,21.00
2010,07,14,14,07,21.10
2010,07,14,14,08,21.20
2010,07,14,14,09,21.30
2010,07,14,14,10,21.30
2010,07,14,14,11,21.30
2010,07,14,14,12,21.40
2010,07,14,14,13,21.30
2010,07,14,14,14,21.30
2010,07,14,14,15,21.40
2010,07,14,14,16,21.50
2010,07,14,14,17,21.60
2010,07,14,14,18,21.70
2010,07,14,14,19,21.80
2010,07,14,14,20,21.90
2010,07,14,14,21,21.90
2010,07,14,14,22,21.80
2010,07,14,14,23,21.80
2010,07,14,14,24,21.80
2010,07,14,14,25,21.80
2010,07,14,14,26,21.80
2010,07,14,14,27,21.80
2010,07,14,14,28,21.70
2010,07,14,14,29,21.80
2010,07,14,14,30,21.80
2010,07,14,14,31,21.80
2010,07,14,14,32,21.80
2010,07,14,14,33,21.90
2010,07,14,14,34,21.80
2010,07,14,14,35,21.80
2010,07,14,14,36,21.70
2010,07,14,14,37,21.50
2010,07,14,14,38,21.40
2010,07,14,14,39,21.30
2010,07,14,14,40,21.20
2010,07,14,14,41,21.10
2010,07,14,14,42,21.00
2010,07,14,14,43,21.10
2010,07,14,14,44,21.10
2010,07,14,14,45,21.10
2010,07,14,14,46,20.90
2010,07,14,14,47,20.90
2010,07,14,14,48,21.00
2010,07,14,14,49,20.90
2010,07,14,14,50,21.00
2010,07,14,14,51,21.00
2010,07,14,14,52,21.00
2010,07,14,14,53,21.00
2010,07,14,14,54,21.10
2010,07,14,14,55,21.10
2010,07,14,14,56,21.10
2010,07,14,14,57,21.20
2010,07,14,14,58,21.30
2010,07,14,14,59,21.30
2010,07,14,15,00,21.30
2010,07,14,15,01,21.20
2010,07,14,15,02,21.10
2010,07,14,15,03,21.00
2010,07,14,15,04,21.00
2010,07,14,15,05,21.10
2010,07,14,15,06,21.20
2010,07,14,15,07,21.40
2010,07,14,15,08,21.60
2010,07,14,15,09,21.80
2010,07,14,15,10,21.90
2010,07,14,15,11,22.10
2010,07,14,15,12,22.20
2010,07,14,15,13,22.30
2010,07,14,15,14,22.10
2010,07,14,15,15,22.10
2010,07,14,15,16,22.00
2010,07,14,15,17,21.80
2010,07,14,15,18,21.70
2010,07,14,15,19,21.60
2010,07,14,15,20,21.60
2010,07,14,15,21,21.50
2010,07,14,15,22,21.40
2010,07,14,15,23,21.40
2010,07,14,15,24,21.40
2010,07,14,15,25,21.40
2010,07,14,15,26,21.40
2010,07,14,15,27,21.40
2010,07,14,15,28,21.40
2010,07,14,15,29,21.40
2010,07,14,15,30,21.40
2010,07,14,15,31,21.40
2010,07,14,15,32,21.40
2010,07,14,15,33,21.50
2010,07,14,15,34,21.60
2010,07,14,15,35,21.60
2010,07,14,15,36,21.60
2010,07,14,15,37,21.60
2010,07,14,15,38,21.70
2010,07,14,15,39,21.80
2010,07,14,15,40,21.80
2010,07,14,15,41,21.80
2010,07,14,15,42,21.90
2010,07,14,15,43,21.90
2010,07,14,15,44,22.00
2010,07,14,15,45,22.00
2010,07,14,15,46,22.00
2010,07,14,15,47,22.00
2010,07,14,15,48,22.00
2010,07,14,15,49,22.10
2010,07,14,15,50,22.10
2010,07,14,15,51,22.10
2010,07,14,15,52,22.10
2010,07,14,15,53,22.10
2010,07,14,15,54,22.10
2010,07,14,15,55,22.10
2010,07,14,15,56,22.00
2010,07,14,15,57,21.90
2010,07,14,15,58,21.80
2010,07,14,15,59,21.80
2010,07,14,16,00,21.80
2010,07,14,16,01,21.80
2010,07,14,16,02,21.80
2010,07,14,16,03,21.80
2010,07,14,16,04,21.80
2010,07,14,16,05,21.80
2010,07,14,16,06,21.80
2010,07,14,16,07,21.80
2010,07,14,16,08,21.80
2010,07,14,16,09,21.80
2010,07,14,16,10,21.80
2010,07,14,16,11,21.70
2010,07,14,16,12,21.70
2010,07,14,16,13,21.60
2010,07,14,16,14,21.60
2010,07,14,16,15,21.50
2010,07,14,16,16,21.60
2010,07,14,16,17,21.60
2010,07,14,16,18,21.60
2010,07,14,16,19,21.70
2010,07,14,16,20,21.60
2010,07,14,16,21,21.60
2010,07,14,16,22,21.60
2010,07,14,16,23,21.60
2010,07,14,16,24,21.60
2010,07,14,16,25,21.70
2010,07,14,16,26,21.70
2010,07,14,16,27,21.70
2010,07,14,16,28,21.70
2010,07,14,16,29,21.70
2010,07,14,16,30,21.70
2010,07,14,16,31,21.70
2010,07,14,16,32,21.70
2010,07,14,16,33,21.70
2010,07,14,16,34,21.70
2010,07,14,16,35,21.70
2010,07,14,16,36,21.70
2010,07,14,16,37,21.70
2010,07,14,16,38,21.60
2010,07,14,16,39,21.50
2010,07,14,16,40,21.40
2010,07,14,16,41,21.40
2010,07,14,16,42,21.30
2010,07,14,16,43,21.30
2010,07,14,16,44,21.20
2010,07,14,16,45,21.20
2010,07,14,16,46,21.20
2010,07,14,16,47,21.20
2010,07,14,16,48,21.20
2010,07,14,16,49,21.20
2010,07,14,16,50,21.30
2010,07,14,16,51,21.30
2010,07,14,16,52,21.20
2010,07,14,16,53,21.10
2010,07,14,16,54,21.10
2010,07,14,16,55,21.10
2010,07,14,16,56,21.10
2010,07,14,16,57,21.10
2010,07,14,16,58,21.10
2010,07,14,16,59,21.10
2010,07,14,17,00,21.10
2010,07,14,17,01,21.20
2010,07,14,17,02,21.20
2010,07,14,17,03,21.20
2010,07,14,17,04,21.30
2010,07,14,17,05,21.30
2010,07,14,17,06,21.30
2010,07,14,17,07,21.30
2010,07,14,17,08,21.30
2010,07,14,17,09,21.30
2010,07,14,17,10,21.30
2010,07,14,17,11,21.30
2010,07,14,17,12,21.30
2010,07,14,17,13,21.30
2010,07,14,17,14,21.30
2010,07,14,17,15,21.30
2010,07,14,17,16,21.20
2010,07,14,17,17,21.20
2010,07,14,17,18,21.20
2010,07,14,17,19,21.20
2010,07,14,17,20,21.20
2010,07,14,17,21,21.10
2010,07,14,17,22,21.10
2010,07,14,17,23,21.10
2010,07,14,17,24,21.10
2010,07,14,17,25,21.10
2010,07,14,17,26,21.10
2010,07,14,17,27,21.00
2010,07,14,17,28,21.00
2010,07,14,17,29,20.90
2010,07,14,17,30,20.90
2010,07,14,17,31,20.90
2010,07,14,17,32,20.90
2010,07,14,17,33,20.80
2010,07,14,17,34,20.80
2010,07,14,17,35,20.80
2010,07,14,17,36,20.70
2010,07,14,17,37,20.70
2010,07,14,17,38,20.70
2010,07,14,17,39,20.60
2010,07,14,17,40,20.60
2010,07,14,17,41,20.60
2010,07,14,17,42,20.60